Cloud_Cover
2 3 77 100 100 100 22 9 6 7 5 6 73 100 95 27 6 0 3 5 2 1 1 30 55 62 92 93 4 1 0 10 1 11 10 0 5 1 2 0 0 0 0
3 0 100 100 99 84 83 17 5 5 16 5 6 7 100 54 5 5 6 2 0 4 98 86 30 10 65 3 0 0 0 0 0 0 0 0 0 0 0 0 0 0 19
2 5 39 78 100 100 100 98 28 11 6 3 16 13 100 22 5 5 5 0 1 8 16 97 100 34 1 0 0 0 0 0 0 0 0 0 0 0 0 0 0 0 0
11 2 2 100 100 100 92 39 88 92 95 27 14 22 24 16 0 0 0 0 0 1 0 0 7 0 0 0 0 0 0 0 0 0 0 0 0 2 0 0 0 0 0
13 0 4 100 100 98 10 40 97 100 79 97 8 1 21 0 5 4 2 0 2 0 0 1 0 0 0 0 1 0 0 0 0 0 0 0 3 14 1 0 0 0 0
34 5 6 90 9 5 5 5 7 53 25 5 5 5 5 5 1 5 5 5 4 5 0 0 0 0 7 6 2 0 0 0 0 0 0 0 0 0 0 0 0 0 6
32 5 3 42 88 6 5 1 4 5 100 62 11 0 2 1 2 0 0 2 1 0 0 0 2 7 8 0 0 0 0 0 0 0 0 0 0 9 2 1 4 1 11
46 14 5 22 2 5 5 5 2 22 100 100 0 3 5 5 1 0 0 9 19 1 4 10 28 1 0 0 0 0 0 0 0 0 0 0 0 0 0 0 0 0 12
66 51 33 50 76 5 5 5 5 10 15 17 3 0 2 1 5 0 0 2 2 0 1 38 3 0 0 0 0 0 0 0 0 0 0 0 0 0 0 0 0 4 7
80 48 30 11 5 10 6 5 5 5 5 25 98 4 0 0 0 0 0 0 0 3 4 0 0 0 0 0 0 0 0 0 0 0 0 0 0 7 23 91 27 90 98
100 90 69 40 7 21 13 5 5 5 5 5 9 43 10 2 13 0 5 4 2 12 0 0 0 0 0 0 0 0 0 0 0 0 0 0 79 20 25 74 56 65 61
100 100 100 59 53 43 40 39 50 5 11 24 5 20 29 4 14 12 1 5 5 3 1 3 0 0 0 0 0 0 0 0 0 0 0 4 3 1 0 5 1 3 9
100 100 100 100 100 56 46 40 8 14 97 60 5 5 5 5 6 49 32 47 34 2 5 4 5 4 0 0 0 0 0 0 0 0 0 0 0 2 0 1 0 0 0
100 100 100 100 100 70 40 8 5 7 28 9 9 6 5 5 36 58 47 60 51 0 3 4 1 0 4 4 4 0 0 0 0 0 0 0 0 0 0 0 0 0 0
97 100 100 100 100 100 58 62 5 5 5 5 6 11 2 5 83 48 100 82 48 0 0 4 4 0 3 2 5 5 0 0 0 0 0 0 0 0 0 0 0 0 0
6 24 79 79 100 100 92 63 42 9 5 8 3 5 5 4 36 55 100 97 53 2 0 0 1 0 0 0 1 4 0 0 0 0 0 0 0 0 0 0 0 0 0
5 1 21 47 91 100 100 84 45 4 3 7 6 5 4 3 5 56 73 90 44 5 4 0 0 0 0 0 2 0 0 0 0 0 0 0 0 0 0 0 0 0 0
5 5 5 23 92 100 100 100 100 56 36 67 80 58 11 5 6 28 53 63 17 5 5 0 0 0 0 0 1 0 0 0 0 0 2 0 0 0 0 0 0 0 0
24 36 17 74 47 92 100 100 100 100 72 36 92 100 57 46 30 17 70 62 16 5 0 1 2 5 0 0 0 0 3 0 0 0 0 0 0 0 0 0 0 0 0
100 100 98 31 65 16 88 100 100 100 100 98 67 54 34 44 23 85 85 21 5 5 5 5 5 5 1 0 0 5 5 5 0 0 0 1 0 0 0 0 0 0 0
98 100 100 100 100 65 67 96 100 100 100 100 100 45 15 48 99 39 5 6 19 20 5 5 5 10 1 4 5 5 5 5 5 5 2 4 0 0 0 0 0 0 0
100 100 100 100 100 100 100 100 100 100 100 100 100 99 60 52 17 6 37 80 38 48 24 17 6 99 5 5 12 40 5 5 5 5 5 3 0 0 4 3 0 0 0
94 100 100 100 100 100 100 100 100 100 100 100 100 100 99 81 89 20 6 21 14 44 68 100 100 100 80 26 100 99 69 31 8 37 11 5 5 5 5 5 5 4 4
33 98 100 100 100 100 100 100 100 100 100 100 100 97 100 100 100 84 94 85 99 74 100 100 100 100 100 100 100 100 100 100 61 100 98 100 56 29 5 5 5 5 4
33 74 70 99 100 100 100 100 99 100 100 100 100 100 100 100 100 100 100 100 100 99 100 100 100 100 100 100 100 100 100 100 100 100 100 98 91 100 17 5 5 5 5
6 6 52 70 78 35 42 38 54 41 64 97 100 100 100 100 100 100 100 100 100 100 100 100 100 100 100 100 100 100 100 100 100 100 100 100 100 100 84 71 5 5 5